�������l�o���
Date,Time,MP-1(��Sv/h),MP-2(��Sv/h),MP-3(��Sv/h),MP-4(��Sv/h),MP-5(��Sv/h),MP-6(��Sv/h),MP-7(��Sv/h),MP-8(��Sv/h),����,����(m/s),���J
2022/05/11,00:00,0.567,0.848,0.542,1.030,0.730,0.345,0.597,0.563,�k�k��,2.6,��
2022/05/11,00:10,0.568,0.848,0.542,1.033,0.732,0.344,0.598,0.562,�k�k��,2.5,��
2022/05/11,00:20,0.567,0.848,0.541,1.031,0.732,0.344,0.598,0.563,�k�k��,3.0,��
2022/05/11,00:30,0.569,0.849,0.542,1.031,0.732,0.343,0.598,0.562,�k�k��,3.3,��
2022/05/11,00:40,0.568,0.849,0.542,1.030,0.733,0.342,0.598,0.563,�k�k��,3.9,��
2022/05/11,00:50,0.569,0.847,0.542,1.029,0.732,0.344,0.597,0.562,�k�k��,3.9,��
2022/05/11,01:00,0.568,0.848,0.542,1.033,0.731,0.343,0.598,0.563,�k�k��,4.2,��
2022/05/11,01:10,0.568,0.849,0.542,1.033,0.730,0.343,0.599,0.562,�k��,5.0,��
2022/05/11,01:20,0.569,0.848,0.542,1.031,0.732,0.343,0.597,0.562,�k��,4.8,��
2022/05/11,01:30,0.568,0.852,0.544,1.032,0.733,0.344,0.598,0.561,�k��,4.9,��
2022/05/11,01:40,0.568,0.847,0.542,1.033,0.731,0.343,0.598,0.562,�k��,5.1,��
2022/05/11,01:50,0.567,0.849,0.542,1.032,0.732,0.345,0.599,0.563,�k�k��,5.4,��
2022/05/11,02:00,0.568,0.848,0.541,1.033,0.732,0.341,0.596,0.561,�k�k��,5.3,��
2022/05/11,02:10,0.570,0.849,0.541,1.032,0.733,0.344,0.597,0.561,�k�k��,5.0,��
2022/05/11,02:20,0.567,0.847,0.541,1.034,0.731,0.344,0.597,0.562,�k�k��,5.2,��
2022/05/11,02:30,0.568,0.850,0.543,1.034,0.731,0.344,0.599,0.561,�k�k��,5.6,��
2022/05/11,02:40,0.569,0.846,0.541,1.034,0.732,0.343,0.598,0.561,�k�k��,5.6,��
2022/05/11,02:50,0.569,0.850,0.544,1.034,0.733,0.344,0.598,0.563,�k�k��,5.3,��
2022/05/11,03:00,0.569,0.847,0.543,1.034,0.731,0.343,0.599,0.562,�k�k��,6.4,��
2022/05/11,03:10,0.570,0.851,0.543,1.035,0.732,0.343,0.599,0.562,�k�k��,6.2,��
2022/05/11,03:20,0.572,0.848,0.543,1.035,0.733,0.345,0.597,0.563,�k�k��,6.9,��
2022/05/11,03:30,0.569,0.849,0.546,1.035,0.731,0.344,0.599,0.563,�k�k��,6.3,��
2022/05/11,03:40,0.570,0.849,0.542,1.036,0.732,0.345,0.598,0.563,�k�k��,6.0,��
2022/05/11,03:50,0.569,0.849,0.543,1.032,0.733,0.345,0.599,0.563,�k�k��,5.8,��
2022/05/11,04:00,0.570,0.852,0.542,1.034,0.731,0.344,0.599,0.563,�k�k��,6.3,��
2022/05/11,04:10,0.570,0.852,0.544,1.033,0.731,0.345,0.598,0.563,�k�k��,6.2,��
2022/05/11,04:20,0.570,0.850,0.543,1.034,0.729,0.345,0.598,0.563,�k�k��,6.2,��
2022/05/11,04:30,0.569,0.850,0.544,1.037,0.734,0.343,0.597,0.564,�k�k��,5.5,��
2022/05/11,04:40,0.568,0.849,0.543,1.036,0.733,0.344,0.598,0.563,�k�k��,6.7,��
2022/05/11,04:50,0.570,0.851,0.544,1.036,0.733,0.344,0.597,0.563,�k�k��,6.1,��
2022/05/11,05:00,0.570,0.849,0.544,1.035,0.734,0.345,0.597,0.564,�k�k��,6.0,��
2022/05/11,05:10,0.569,0.851,0.543,1.035,0.735,0.343,0.598,0.564,�k�k��,5.7,��
2022/05/11,05:20,0.571,0.850,0.544,1.035,0.733,0.344,0.597,0.564,�k,5.6,�L
2022/05/11,05:30,0.570,0.849,0.545,1.035,0.733,0.344,0.597,0.563,�k�k��,5.8,��
2022/05/11,05:40,0.571,0.850,0.544,1.033,0.735,0.345,0.596,0.563,�k�k��,6.0,��
2022/05/11,05:50,0.570,0.852,0.544,1.037,0.734,0.345,0.596,0.563,�k�k��,6.7,��
2022/05/11,06:00,0.569,0.849,0.544,1.035,0.733,0.345,0.598,0.563,�k�k��,6.2,��
2022/05/11,06:10,0.572,0.850,0.545,1.034,0.733,0.345,0.598,0.562,�k�k��,6.4,��
2022/05/11,06:20,0.569,0.850,0.544,1.034,0.734,0.344,0.597,0.563,�k�k��,6.2,��
2022/05/11,06:30,0.570,0.850,0.546,1.036,0.733,0.345,0.596,0.564,�k�k��,6.2,��
2022/05/11,06:40,0.570,0.851,0.546,1.036,0.733,0.345,0.599,0.564,�k�k��,5.9,��
2022/05/11,06:50,0.570,0.850,0.544,1.037,0.734,0.344,0.596,0.565,�k�k��,6.9,��
2022/05/11,07:00,0.570,0.850,0.545,1.037,0.734,0.345,0.595,0.564,�k�k��,6.7,��
2022/05/11,07:10,0.572,0.852,0.545,1.035,0.733,0.344,0.596,0.565,�k�k��,6.3,��
2022/05/11,07:20,0.572,0.853,0.545,1.035,0.735,0.343,0.596,0.563,�k�k��,6.1,��
2022/05/11,07:30,0.572,0.855,0.545,1.039,0.732,0.344,0.596,0.563,�k�k��,5.0,��
2022/05/11,07:40,0.574,0.852,0.544,1.034,0.733,0.345,0.597,0.562,�k�k��,5.3,��
2022/05/11,07:50,0.571,0.852,0.547,1.037,0.732,0.344,0.597,0.564,�k�k��,4.7,��
2022/05/11,08:00,0.573,0.851,0.544,1.037,0.732,0.345,0.597,0.562,�k�k��,4.2,��
2022/05/11,08:10,0.572,0.851,0.545,1.038,0.733,0.344,0.597,0.563,�k�k��,5.0,��
2022/05/11,08:20,0.572,0.848,0.547,1.037,0.733,0.345,0.595,0.562,�k�k��,5.1,��
2022/05/11,08:30,0.572,0.850,0.545,1.037,0.731,0.344,0.596,0.561,�k�k��,4.4,��
2022/05/11,08:40,0.572,0.849,0.547,1.037,0.733,0.343,0.597,0.560,�k�k��,3.5,��
2022/05/11,08:50,0.573,0.850,0.546,1.039,0.733,0.344,0.598,0.563,�k�k��,2.9,��
2022/05/11,09:00,0.572,0.849,0.547,1.038,0.732,0.344,0.597,0.563,�k,3.1,��
2022/05/11,09:10,0.570,0.847,0.546,1.038,0.733,0.345,0.594,0.562,�k,2.9,��
2022/05/11,09:20,0.572,0.844,0.546,1.038,0.734,0.344,0.595,0.563,�k�k��,2.5,��
2022/05/11,09:30,0.569,0.846,0.546,1.040,0.734,0.345,0.597,0.562,�k,2.5,��
2022/05/11,09:40,0.570,0.849,0.546,1.036,0.732,0.344,0.596,0.561,�k,2.6,��
2022/05/11,09:50,0.570,0.849,0.545,1.037,0.734,0.344,0.595,0.561,�k,2.6,��
2022/05/11,10:00,0.571,0.847,0.543,1.039,0.732,0.345,0.595,0.562,�k�k��,3.6,��
2022/05/11,10:10,0.571,0.848,0.544,1.037,0.732,0.343,0.597,0.561,�k�k��,4.2,��
2022/05/11,10:20,0.571,0.848,0.543,1.039,0.732,0.343,0.596,0.564,�k�k��,4.4,��
2022/05/11,10:30,0.571,0.848,0.544,1.035,0.733,0.344,0.594,0.563,�k�k��,5.0,��
2022/05/11,10:40,0.572,0.849,0.544,1.037,0.734,0.343,0.596,0.561,�k�k��,4.8,��
2022/05/11,10:50,0.573,0.851,0.544,1.036,0.734,0.344,0.597,0.561,�k,5.8,��
2022/05/11,11:00,0.572,0.849,0.543,1.036,0.734,0.344,0.598,0.562,�k�k��,4.7,��
2022/05/11,11:10,0.574,0.850,0.544,1.036,0.735,0.345,0.598,0.563,�k�k��,4.7,��
2022/05/11,11:20,0.572,0.851,0.545,1.034,0.736,0.345,0.596,0.562,�k�k��,3.8,��
2022/05/11,11:30,0.573,0.851,0.543,1.036,0.735,0.343,0.597,0.562,�k��,4.1,��
2022/05/11,11:40,0.573,0.852,0.544,1.034,0.735,0.344,0.597,0.563,�k�k��,4.3,��
2022/05/11,11:50,0.572,0.851,0.545,1.037,0.737,0.345,0.597,0.563,�k��,3.1,��
2022/05/11,12:00,0.573,0.853,0.545,1.038,0.735,0.344,0.599,0.563,���k��,3.5,��
2022/05/11,12:10,0.573,0.852,0.545,1.038,0.735,0.344,0.598,0.563,���k��,2.6,��
2022/05/11,12:20,0.572,0.853,0.545,1.035,0.734,0.343,0.599,0.563,���k��,2.8,��
2022/05/11,12:30,0.573,0.854,0.545,1.037,0.735,0.344,0.597,0.563,���k��,2.6,��
2022/05/11,12:40,0.573,0.854,0.545,1.037,0.736,0.344,0.598,0.564,���k��,2.6,��
2022/05/11,12:50,0.573,0.854,0.545,1.037,0.736,0.345,0.597,0.562,��,1.7,��
2022/05/11,13:00,0.572,0.852,0.545,1.039,0.737,0.344,0.597,0.563,��,2.0,��
2022/05/11,13:10,0.572,0.852,0.545,1.037,0.737,0.344,0.595,0.562,���k��,2.6,��
2022/05/11,13:20,0.574,0.854,0.545,1.038,0.736,0.344,0.598,0.562,���k��,2.3,��
2022/05/11,13:30,0.573,0.851,0.545,1.038,0.738,0.345,0.597,0.561,��,2.6,��
2022/05/11,13:40,0.573,0.854,0.546,1.041,0.738,0.343,0.598,0.562,��,2.5,��
2022/05/11,13:50,0.575,0.853,0.546,1.039,0.735,0.345,0.598,0.563,��,2.6,��
2022/05/11,14:00,0.573,0.852,0.543,1.039,0.737,0.344,0.598,0.563,��,2.6,��
2022/05/11,14:10,0.574,0.852,0.545,1.041,0.738,0.344,0.597,0.562,���쓌,2.6,��
2022/05/11,14:20,0.574,0.853,0.546,1.040,0.738,0.344,0.600,0.563,��,2.5,��
2022/05/11,14:30,0.573,0.855,0.545,1.039,0.737,0.345,0.598,0.563,���쓌,1.9,��
2022/05/11,14:40,0.574,0.857,0.545,1.039,0.738,0.345,0.598,0.564,���쓌,2.5,��
2022/05/11,14:50,0.574,0.856,0.545,1.038,0.736,0.344,0.599,0.564,���쓌,3.0,��
2022/05/11,15:00,0.574,0.853,0.545,1.039,0.739,0.345,0.599,0.563,�쓌,2.8,��
2022/05/11,15:10,0.573,0.854,0.545,1.041,0.738,0.344,0.600,0.563,�쓌,3.0,��
2022/05/11,15:20,0.574,0.855,0.546,1.039,0.737,0.345,0.599,0.563,�쓌,2.8,��
2022/05/11,15:30,0.575,0.854,0.544,1.039,0.738,0.344,0.598,0.563,��쓌,2.6,��
2022/05/11,15:40,0.573,0.855,0.545,1.038,0.739,0.344,0.598,0.563,�쓌,2.3,��
2022/05/11,15:50,0.572,0.857,0.547,1.037,0.738,0.344,0.599,0.564,�쓌,2.0,��
2022/05/11,16:00,0.574,0.856,0.545,1.043,0.739,0.345,0.599,0.564,���쓌,3.0,��
2022/05/11,16:10,0.574,0.855,0.546,1.042,0.737,0.345,0.599,0.563,�쓌,2.6,��
2022/05/11,16:20,0.574,0.855,0.545,1.041,0.738,0.346,0.600,0.563,��쓌,2.3,��
2022/05/11,16:30,0.574,0.857,0.546,1.040,0.737,0.344,0.601,0.563,��쓌,2.3,��
2022/05/11,16:40,0.574,0.855,0.547,1.038,0.737,0.344,0.600,0.563,�쓌,2.5,��
2022/05/11,16:50,0.574,0.858,0.545,1.037,0.736,0.345,0.600,0.564,��쓌,2.9,��
2022/05/11,17:00,0.575,0.857,0.545,1.042,0.739,0.345,0.601,0.564,�쓌,3.5,��
2022/05/11,17:10,0.572,0.858,0.546,1.039,0.738,0.346,0.599,0.562,��쓌,3.7,��
2022/05/11,17:20,0.573,0.857,0.546,1.039,0.737,0.347,0.598,0.564,��쓌,4.4,��
2022/05/11,17:30,0.575,0.856,0.546,1.040,0.739,0.347,0.599,0.565,��쓌,5.1,��
2022/05/11,17:40,0.575,0.857,0.546,1.037,0.738,0.346,0.600,0.564,��쓌,5.0,��
2022/05/11,17:50,0.574,0.862,0.546,1.039,0.736,0.346,0.601,0.565,��쓌,4.9,��
2022/05/11,18:00,0.575,0.858,0.545,1.038,0.737,0.347,0.601,0.565,��쓌,6.3,��
2022/05/11,18:10,0.574,0.861,0.547,1.040,0.736,0.346,0.601,0.565,��쓌,6.8,��
2022/05/11,18:20,0.576,0.857,0.546,1.041,0.737,0.345,0.600,0.565,��쓌,7.6,��
2022/05/11,18:30,0.577,0.859,0.546,1.041,0.737,0.344,0.601,0.566,��,7.6,��
2022/05/11,18:40,0.576,0.859,0.544,1.042,0.738,0.347,0.600,0.565,��,6.7,��
2022/05/11,18:50,0.574,0.860,0.546,1.044,0.738,0.348,0.599,0.566,��,6.2,��
2022/05/11,19:00,0.576,0.859,0.546,1.042,0.739,0.348,0.600,0.566,��,7.4,��
2022/05/11,19:10,0.577,0.858,0.547,1.044,0.740,0.345,0.602,0.566,��,7.5,��
2022/05/11,19:20,0.577,0.858,0.547,1.043,0.740,0.346,0.602,0.564,��,7.9,��
2022/05/11,19:30,0.575,0.859,0.548,1.041,0.739,0.348,0.601,0.565,��,7.3,��
2022/05/11,19:40,0.576,0.858,0.548,1.042,0.744,0.348,0.601,0.565,��,6.6,��
2022/05/11,19:50,0.577,0.860,0.548,1.043,0.739,0.347,0.603,0.566,��,6.0,��
2022/05/11,20:00,0.577,0.860,0.549,1.043,0.742,0.346,0.601,0.565,��,6.9,��
2022/05/11,20:10,0.577,0.858,0.548,1.043,0.739,0.348,0.601,0.565,��,8.2,��
2022/05/11,20:20,0.575,0.861,0.546,1.041,0.741,0.348,0.602,0.565,��,8.0,��
2022/05/11,20:30,0.575,0.858,0.548,1.042,0.741,0.347,0.602,0.565,��,9.2,��
2022/05/11,20:40,0.577,0.857,0.547,1.044,0.741,0.347,0.603,0.565,��,7.3,��
2022/05/11,20:50,0.576,0.860,0.547,1.042,0.741,0.347,0.603,0.566,��,9.1,��
2022/05/11,21:00,0.576,0.858,0.547,1.043,0.740,0.346,0.601,0.565,��,9.9,��
2022/05/11,21:10,0.575,0.857,0.547,1.042,0.741,0.347,0.603,0.564,��,9.6,��
2022/05/11,21:20,0.575,0.860,0.547,1.042,0.741,0.346,0.601,0.564,��,10.3,��
2022/05/11,21:30,0.578,0.859,0.546,1.039,0.738,0.346,0.602,0.565,��,10.2,��
2022/05/11,21:40,0.574,0.859,0.547,1.041,0.740,0.346,0.603,0.565,��,9.7,��
2022/05/11,21:50,0.576,0.860,0.547,1.043,0.739,0.347,0.602,0.565,��,7.2,��
2022/05/11,22:00,0.577,0.856,0.545,1.043,0.740,0.346,0.601,0.566,��,7.6,��
2022/05/11,22:10,0.577,0.858,0.547,1.042,0.740,0.347,0.601,0.566,��,9.0,��
2022/05/11,22:20,0.576,0.859,0.549,1.042,0.739,0.347,0.602,0.563,��,9.0,��
2022/05/11,22:30,0.576,0.857,0.548,1.043,0.738,0.347,0.601,0.565,��,9.3,��
2022/05/11,22:40,0.576,0.858,0.549,1.042,0.739,0.348,0.600,0.566,��,9.8,��
2022/05/11,22:50,0.578,0.858,0.546,1.042,0.738,0.348,0.601,0.566,��,9.5,��
2022/05/11,23:00,0.577,0.857,0.546,1.041,0.740,0.348,0.601,0.565,��,9.2,��
2022/05/11,23:10,0.577,0.858,0.548,1.041,0.739,0.346,0.603,0.563,��,8.9,��
2022/05/11,23:20,0.577,0.858,0.547,1.043,0.741,0.347,0.602,0.566,��,8.0,��
2022/05/11,23:30,0.579,0.857,0.548,1.044,0.741,0.348,0.602,0.564,��,7.6,��
2022/05/11,23:40,0.577,0.856,0.547,1.044,0.740,0.346,0.602,0.565,��,7.5,��
2022/05/11,23:50,0.577,0.859,0.547,1.042,0.740,0.346,0.601,0.566,��,7.8,��
